Location: Cambridge (historical)
(38.6883°N, 119.0140°W)
Time: 17:19:54
(UTC+00:00)

Cosmos 1992 Rocket - Pass Details

Date: 29 October 2020
Orbit: 759 x 765 km, 74.0° (Epoch: 23 November)

Event Time Altitude Azimuth Distance (km) Brightness Sun altitude
Exits shadow 12:59:09 - 331° (NNW) 2,510 6.4 -16.4°
Reaches altitude 10° 12:59:43 10° 330° (NNW) 2,299 6.1 -16.3°
Maximum altitude 13:04:42 48° 257° (WSW) 990 4.2 -15.3°
Drops below altitude 10° 13:09:41 10° 184° (S) 2,288 6.5 -14.3°
Sets 13:12:06 0° 178° (S) 3,210 7.3 -13.9°
